Showing default

EDISON-1, 62610

Orbit data source: Space-Track

EDISON-1, 62610 is a Danish payload satellite in SSO that was launched on Tue, 14 Jan 2025 UTC via an FALCON 9 launch vehicle from the Air Force Western Test Range (AFWTR). Payload-class satellites include a variety of spacecraft equipped with specific instruments for various scientific and technological missions. These include communications satellites like Starlink; space stations such as the ISS; scientific satellites like the Hubble; Earth observation satellites from companies like Planet Labs, Umbra, and HawkEye 360; GPS; miniature CubeSats for education and research; and military/defense satellites.

Loading next visibility...
Identifier
62610, 2025-009B
Orbit
SSO
Country
Flag of DKDK / DEN
Related business
Manufacturer
Space Inventor
Mission
Operational Commercial Technology
Bus & Motor
CUBESAT 8U, Unknown motor
Mass
~15 kg wet, ~15 kg dry
Launch date (UTC)
2025-01-14 (1 year ago)
Launch vehicle
FALCON 9
Launch site
Air Force Western Test Range (AFWTR)
Object type
Payload
Rocket body
Debris
Shape & HBR
Box + 1 Pan, 0.3 m
Radar Cross Section
0.180 m², Medium (>0.1 m² and < 1m²)

Expand to show TLE details & history
Last TLE update: 16 hours ago

TLE from 16 hours ago
0 EDISON-1
1 62610U 25009B   26171.19387432  .00010954  00000-0  36057-3 0  9998
2 62610  97.4000 253.7027 0003940 301.2627  58.8228 15.31667459 79411
Epoch: 2026-06-20T04:39Z
TLE epoch observation values (Epoch: 2026-06-20T04:39:10.741Z)
Latitude
-0.00003°
Longitude
-84.50405°
Altitude
472.547 km
Speed
7.63 km/s
True Right ascension
16h 54m 48s
True Declination
0° 00' 00"
Sunlit
Object was in full shadow at epoch
Visualization orbit readout
Latitude
Unknown
Longitude
Unknown
Altitude
Unknown
Speed
Unknown
Apparent Right ascension
Unknown
Apparent Declination
Unknown
Sunlit
N/A
Visualization observer readout
Local Sidereal Time
07:24:04
Azimuth
Unknown
Elevation
Unknown
Doppler factor
Unknown
Orbital elements
Apogee altitude
470.484 km
Perigee altitude
465.09 km
Semi-major axis
6,845.924 km
Eccentricity
0.00039
Inclination
97.4°
RAAN
253.7027°
Arg. of periapsis
301.2627°
True anomaly
58.86144°
Mean anomaly
58.8228°
Eccentric anomaly
58.84212°
Mean motion
3.83173 °/min
Orbital period
93.95 mins
BSTAR
0.00036057
Loading maneuver chart data...
Computing Atmospheric mass density...
Loading historical data...
Loading historical data...
Loading historical data...
Loading historical data...
Loading historical data...
Loading historical data...
Loading historical data...

Documentation

Showing up to 5 results
|